QPF
0.03 0.03 0.05 0.07 0.06 0.05 0.04 0.04 0.04 0.03 0.02 0.04 0.06 0.08 0.06 0.06 0.05 0.04 0.03 0.01 0.01 0.00 0.00 0.00 0.00 0.01 0.00 0.01 0.01 0.01 0.00 0.00 0.00 0.00 0.00 0.00 0.00 0.00 0.00 0.00 0.00 0.00 0.00 0.00
0.04 0.04 0.03 0.04 0.05 0.04 0.04 0.04 0.04 0.04 0.03 0.05 0.06 0.06 0.05 0.05 0.04 0.03 0.02 0.01 0.01 0.00 0.00 0.00 0.00 0.00 0.00 0.01 0.01 0.01 0.00 0.00 0.00 0.00 0.00 0.00 0.00 0.00 0.00 0.00 0.00 0.00 0.00 0.00
0.06 0.04 0.03 0.04 0.05 0.04 0.05 0.06 0.05 0.05 0.05 0.05 0.05 0.04 0.04 0.03 0.02 0.01 0.02 0.01 0.01 0.00 0.00 0.00 0.00 0.00 0.00 0.00 0.01 0.01 0.00 0.00 0.00 0.00 0.00 0.00 0.00 0.00 0.00 0.00 0.00 0.00 0.00 0.00
0.05 0.04 0.03 0.04 0.03 0.04 0.04 0.05 0.05 0.04 0.04 0.05 0.03 0.04 0.03 0.01 0.01 0.00 0.00 0.01 0.01 0.00 0.00 0.00 0.00 0.00 0.00 0.00 0.00 0.00 0.00 0.00 0.00 0.00 0.00 0.00 0.00 0.00 0.00 0.00 0.00 0.00 0.00 0.00
0.04 0.05 0.03 0.02 0.01 0.02 0.03 0.03 0.04 0.04 0.04 0.03 0.02 0.02 0.01 0.01 0.00 0.00 0.00 0.00 0.00 0.00 0.00 0.00 0.00 0.00 0.00 0.00 0.00 0.00 0.00 0.00 0.00 0.00 0.00 0.00 0.00 0.00 0.00 0.01 0.00 0.00 0.00 0.00
0.02 0.04 0.04 0.02 0.01 0.02 0.02 0.03 0.04 0.04 0.04 0.03 0.02 0.01 0.01 0.00 0.00 0.00 0.00 0.00 0.00 0.00 0.00 0.00 0.00 0.00 0.00 0.00 0.00 0.00 0.00 0.00 0.00 0.00 0.00 0.00 0.00 0.00 0.00 0.00 0.00 0.00 0.00 0.00
0.02 0.03 0.03 0.02 0.02 0.02 0.02 0.02 0.03 0.04 0.03 0.03 0.01 0.01 0.00 0.00 0.00 0.00 0.00 0.00 0.00 0.00 0.00 0.00 0.00 0.00 0.00 0.00 0.00 0.00 0.00 0.00 0.00 0.00 0.00 0.00 0.00 0.00 0.00 0.00 0.00 0.00 0.00 0.00
0.02 0.04 0.03 0.02 0.02 0.03 0.02 0.02 0.03 0.03 0.02 0.02 0.01 0.01 0.00 0.00 0.00 0.00 0.00 0.00 0.00 0.00 0.00 0.00 0.00 0.00 0.00 0.00 0.00 0.00 0.00 0.00 0.00 0.00 0.00 0.00 0.00 0.00 0.00 0.00 0.00 0.00 0.00 0.00
0.02 0.03 0.03 0.02 0.01 0.02 0.02 0.02 0.01 0.02 0.01 0.01 0.01 0.00 0.00 0.00 0.00 0.00 0.00 0.00 0.00 0.00 0.00 0.00 0.00 0.00 0.00 0.00 0.00 0.00 0.00 0.00 0.00 0.00 0.00 0.00 0.00 0.00 0.00 0.00 0.00 0.00 0.00 0.00
0.01 0.03 0.03 0.02 0.02 0.03 0.02 0.02 0.01 0.01 0.02 0.01 0.01 0.00 0.00 0.00 0.00 0.00 0.00 0.00 0.00 0.00 0.00 0.00 0.00 0.00 0.01 0.01 0.00 0.00 0.00 0.00 0.00 0.00 0.00 0.00 0.00 0.00 0.00 0.00 0.00 0.00 0.01 0.00
0.01 0.02 0.03 0.03 0.03 0.03 0.01 0.02 0.02 0.02 0.01 0.01 0.01 0.01 0.00 0.00 0.00 0.00 0.00 0.00 0.00 0.00 0.00 0.00 0.00 0.00 0.01 0.01 0.01 0.00 0.00 0.00 0.00 0.00 0.00 0.00 0.00 0.00 0.00 0.00 0.00 0.01 0.01 0.01
0.01 0.03 0.04 0.03 0.01 0.01 0.01 0.02 0.02 0.02 0.02 0.01 0.01 0.01 0.00 0.00 0.00 0.00 0.00 0.00 0.00 0.00 0.00 0.00 0.00 0.00 0.00 0.00 0.00 0.00 0.00 0.00 0.00 0.00 0.00 0.00 0.00 0.00 0.00 0.00 0.00 0.01 0.01 0.01
0.01 0.02 0.03 0.03 0.02 0.01 0.01 0.01 0.01 0.01 0.01 0.02 0.02 0.01 0.00 0.00 0.00 0.00 0.00 0.00 0.00 0.00 0.00 0.00 0.00 0.00 0.00 0.00 0.00 0.00 0.00 0.00 0.00 0.00 0.00 0.00 0.00 0.00 0.00 0.00 0.00 0.00 0.01 0.01
0.01 0.01 0.01 0.02 0.01 0.01 0.01 0.01 0.00 0.01 0.01 0.02 0.02 0.01 0.00 0.00 0.00 0.00 0.00 0.00 0.00 0.00 0.00 0.00 0.00 0.00 0.00 0.00 0.00 0.01 0.01 0.01 0.00 0.00 0.00 0.00 0.00 0.00 0.00 0.00 0.00 0.01 0.01 0.01
0.01 0.01 0.01 0.01 0.01 0.01 0.01 0.01 0.01 0.01 0.01 0.01 0.01 0.00 0.00 0.00 0.00 0.00 0.00 0.00 0.00 0.00 0.00 0.00 0.00 0.00 0.00 0.00 0.00 0.01 0.01 0.01 0.00 0.00 0.00 0.00 0.00 0.00 0.01 0.01 0.01 0.01 0.01 0.01
0.01 0.02 0.01 0.01 0.01 0.01 0.01 0.01 0.01 0.01 0.01 0.01 0.00 0.00 0.00 0.00 0.00 0.00 0.00 0.00 0.00 0.00 0.00 0.00 0.00 0.00 0.00 0.00 0.00 0.01 0.01 0.01 0.01 0.01 0.00 0.00 0.00 0.00 0.01 0.01 0.01 0.01 0.01 0.01
0.01 0.01 0.02 0.01 0.01 0.01 0.01 0.01 0.01 0.01 0.01 0.01 0.00 0.00 0.00 0.00 0.00 0.00 0.00 0.00 0.00 0.00 0.00 0.00 0.00 0.00 0.00 0.00 0.00 0.00 0.01 0.01 0.01 0.01 0.01 0.01 0.01 0.01 0.01 0.01 0.01 0.01 0.01 0.01
0.00 0.00 0.01 0.01 0.01 0.01 0.01 0.01 0.00 0.01 0.01 0.01 0.00 0.00 0.00 0.00 0.00 0.00 0.00 0.00 0.00 0.00 0.00 0.00 0.00 0.00 0.00 0.00 0.00 0.00 0.00 0.00 0.00 0.01 0.01 0.01 0.01 0.01 0.01 0.00 0.00 0.01 0.01 0.01
0.00 0.00 0.00 0.00 0.00 0.01 0.01 0.00 0.00 0.00 0.00 0.00 0.00 0.00 0.00 0.00 0.00 0.00 0.00 0.00 0.00 0.00 0.00 0.00 0.00 0.00 0.00 0.00 0.00 0.00 0.00 0.00 0.00 0.00 0.00 0.01 0.01 0.01 0.01 0.00 0.00 0.00 0.00 0.01
0.00 0.00 0.00 0.00 0.00 0.00 0.00 0.00 0.00 0.00 0.00 0.00 0.00 0.00 0.00 0.00 0.00 0.00 0.00 0.00 0.00 0.00 0.00 0.00 0.00 0.00 0.00 0.00 0.00 0.00 0.00 0.00 0.00 0.00 0.00 0.00 0.00 0.00 0.00 0.00 0.01 0.01 0.00 0.00
0.00 0.00 0.00 0.00 0.00 0.00 0.00 0.00 0.00 0.00 0.00 0.00 0.00 0.00 0.00 0.00 0.00 0.00 0.00 0.00 0.00 0.00 0.00 0.00 0.00 0.00 0.00 0.00 0.00 0.00 0.00 0.00 0.00 0.00 0.00 0.00 0.00 0.00 0.00 0.00 0.00 0.01 0.01 0.00
0.00 0.00 0.00 0.00 0.00 0.00 0.00 0.00 0.00 0.00 0.00 0.00 0.00 0.00 0.00 0.00 0.00 0.00 0.00 0.00 0.00 0.00 0.00 0.00 0.00 0.00 0.00 0.00 0.00 0.00 0.00 0.00 0.00 0.00 0.00 0.00 0.00 0.00 0.00 0.00 0.00 0.01 0.01 0.01
0.00 0.00 0.00 0.00 0.00 0.00 0.00 0.00 0.00 0.00 0.00 0.00 0.00 0.00 0.00 0.00 0.00 0.00 0.00 0.00 0.00 0.00 0.00 0.00 0.00 0.00 0.00 0.00 0.00 0.00 0.00 0.00 0.00 0.00 0.00 0.00 0.00 0.01 0.01 0.01 0.01 0.01 0.01 0.01
0.00 0.00 0.00 0.00 0.00 0.00 0.00 0.00 0.00 0.00 0.00 0.00 0.00 0.00 0.00 0.00 0.00 0.00 0.00 0.00 0.00 0.00 0.00 0.00 0.00 0.00 0.00 0.00 0.00 0.00 0.00 0.00 0.00 0.00 0.00 0.00 0.00 0.01 0.01 0.01 0.01 0.01 0.01 0.01
0.00 0.00 0.00 0.00 0.00 0.00 0.00 0.00 0.00 0.00 0.00 0.00 0.00 0.00 0.00 0.00 0.00 0.00 0.00 0.00 0.00 0.00 0.00 0.00 0.00 0.00 0.00 0.00 0.00 0.00 0.00 0.00 0.00 0.00 0.00 0.00 0.01 0.01 0.01 0.01 0.01 0.01 0.01 0.01
0.00 0.00 0.00 0.00 0.00 0.00 0.00 0.00 0.00 0.00 0.00 0.00 0.00 0.00 0.00 0.00 0.00 0.00 0.00 0.00 0.00 0.00 0.00 0.00 0.00 0.00 0.00 0.00 0.00 0.00 0.00 0.00 0.00 0.00 0.00 0.00 0.00 0.01 0.01 0.01 0.02 0.02 0.01 0.02
MSLP
1016.20 1016.90 1017.57 1018.18 1018.72 1019.19 1019.59 1019.92 1020.18 1020.36 1020.45 1020.42 1020.28 1020.03 1019.68 1019.26 1018.83 1018.41 1018.06 1017.81 1017.65 1017.60 1017.64 1017.74 1017.89 1018.05 1018.22 1018.39 1018.57 1018.77 1018.98 1019.22 1019.48 1019.74 1019.99 1020.20 1020.34 1020.41 1020.40 1020.31 1020.15 1019.96 1019.75 1019.54
1016.76 1017.42 1018.01 1018.53 1018.97 1019.35 1019.68 1019.96 1020.19 1020.36 1020.45 1020.42 1020.27 1020.00 1019.62 1019.16 1018.68 1018.23 1017.86 1017.59 1017.45 1017.43 1017.51 1017.66 1017.83 1018.02 1018.19 1018.35 1018.52 1018.70 1018.91 1019.16 1019.45 1019.75 1020.05 1020.32 1020.52 1020.64 1020.67 1020.61 1020.48 1020.30 1020.11 1019.93
1017.23 1017.80 1018.29 1018.69 1019.02 1019.29 1019.53 1019.75 1019.94 1020.10 1020.18 1020.15 1020.00 1019.72 1019.31 1018.83 1018.33 1017.86 1017.48 1017.23 1017.12 1017.14 1017.27 1017.47 1017.69 1017.90 1018.09 1018.25 1018.41 1018.57 1018.78 1019.04 1019.34 1019.68 1020.03 1020.34 1020.60 1020.77 1020.84 1020.83 1020.75 1020.62 1020.47 1020.33
1017.61 1018.08 1018.45 1018.72 1018.92 1019.07 1019.22 1019.36 1019.52 1019.65 1019.72 1019.69 1019.54 1019.25 1018.84 1018.34 1017.82 1017.34 1016.97 1016.73 1016.65 1016.72 1016.90 1017.15 1017.42 1017.68 1017.89 1018.07 1018.24 1018.41 1018.61 1018.87 1019.19 1019.55 1019.92 1020.27 1020.57 1020.79 1020.91 1020.96 1020.93 1020.86 1020.77 1020.69
1017.94 1018.30 1018.54 1018.68 1018.74 1018.78 1018.83 1018.92 1019.02 1019.13 1019.20 1019.17 1019.02 1018.72 1018.30 1017.79 1017.25 1016.75 1016.37 1016.14 1016.08 1016.19 1016.42 1016.72 1017.05 1017.35 1017.62 1017.83 1018.02 1018.20 1018.42 1018.68 1019.00 1019.36 1019.75 1020.12 1020.44 1020.69 1020.87 1020.96 1020.99 1020.99 1020.97 1020.95
1018.26 1018.51 1018.62 1018.63 1018.58 1018.51 1018.48 1018.51 1018.58 1018.67 1018.73 1018.71 1018.55 1018.25 1017.81 1017.27 1016.70 1016.18 1015.77 1015.53 1015.48 1015.60 1015.86 1016.21 1016.59 1016.96 1017.27 1017.54 1017.76 1017.97 1018.20 1018.47 1018.78 1019.14 1019.52 1019.89 1020.23 1020.50 1020.70 1020.84 1020.93 1020.99 1021.03 1021.08
1018.57 1018.72 1018.73 1018.63 1018.48 1018.34 1018.24 1018.23 1018.28 1018.37 1018.42 1018.40 1018.24 1017.93 1017.46 1016.89 1016.29 1015.72 1015.27 1014.99 1014.92 1015.03 1015.30 1015.68 1016.10 1016.52 1016.89 1017.20 1017.48 1017.72 1017.97 1018.24 1018.55 1018.89 1019.26 1019.61 1019.94 1020.22 1020.44 1020.61 1020.74 1020.86 1020.96 1021.07
1018.86 1018.93 1018.86 1018.69 1018.48 1018.28 1018.16 1018.13 1018.18 1018.26 1018.33 1018.31 1018.15 1017.82 1017.33 1016.73 1016.07 1015.45 1014.94 1014.61 1014.48 1014.56 1014.81 1015.19 1015.63 1016.08 1016.49 1016.85 1017.17 1017.45 1017.72 1018.00 1018.30 1018.63 1018.97 1019.30 1019.61 1019.88 1020.11 1020.31 1020.47 1020.63 1020.79 1020.95
1019.10 1019.12 1019.01 1018.80 1018.56 1018.36 1018.23 1018.21 1018.27 1018.37 1018.45 1018.44 1018.28 1017.95 1017.44 1016.80 1016.10 1015.42 1014.84 1014.44 1014.24 1014.26 1014.46 1014.81 1015.23 1015.69 1016.12 1016.51 1016.85 1017.16 1017.45 1017.73 1018.03 1018.34 1018.66 1018.98 1019.27 1019.54 1019.77 1019.97 1020.16 1020.35 1020.55 1020.76
1019.25 1019.25 1019.12 1018.92 1018.69 1018.51 1018.41 1018.42 1018.51 1018.64 1018.74 1018.75 1018.60 1018.27 1017.76 1017.10 1016.37 1015.64 1015.01 1014.53 1014.25 1014.19 1014.32 1014.60 1014.97 1015.39 1015.81 1016.20 1016.55 1016.87 1017.16 1017.46 1017.75 1018.06 1018.36 1018.66 1018.95 1019.21 1019.44 1019.66 1019.87 1020.09 1020.32 1020.56
1019.26 1019.27 1019.17 1019.00 1018.83 1018.69 1018.64 1018.69 1018.82 1018.99 1019.12 1019.15 1019.03 1018.73 1018.23 1017.59 1016.85 1016.11 1015.43 1014.90 1014.54 1014.39 1014.42 1014.61 1014.90 1015.25 1015.61 1015.96 1016.29 1016.59 1016.89 1017.18 1017.47 1017.78 1018.08 1018.38 1018.67 1018.93 1019.18 1019.41 1019.64 1019.87 1020.12 1020.39
1019.12 1019.18 1019.13 1019.03 1018.91 1018.84 1018.86 1018.96 1019.13 1019.33 1019.49 1019.56 1019.48 1019.22 1018.77 1018.17 1017.47 1016.75 1016.08 1015.51 1015.10 1014.87 1014.80 1014.87 1015.05 1015.29 1015.56 1015.83 1016.11 1016.38 1016.65 1016.93 1017.22 1017.53 1017.84 1018.15 1018.45 1018.72 1018.98 1019.22 1019.47 1019.72 1019.98 1020.26
1018.89 1018.99 1019.01 1018.98 1018.94 1018.94 1019.00 1019.15 1019.35 1019.58 1019.77 1019.88 1019.85 1019.66 1019.29 1018.78 1018.17 1017.52 1016.89 1016.34 1015.90 1015.60 1015.43 1015.39 1015.43 1015.54 1015.69 1015.86 1016.05 1016.26 1016.49 1016.75 1017.03 1017.34 1017.66 1017.98 1018.29 1018.58 1018.85 1019.10 1019.35 1019.61 1019.87 1020.16
1018.61 1018.77 1018.85 1018.88 1018.91 1018.96 1019.07 1019.24 1019.46 1019.70 1019.91 1020.06 1020.09 1019.98 1019.73 1019.35 1018.87 1018.33 1017.79 1017.30 1016.87 1016.53 1016.29 1016.13 1016.05 1016.02 1016.03 1016.07 1016.16 1016.28 1016.45 1016.67 1016.93 1017.23 1017.55 1017.88 1018.19 1018.48 1018.76 1019.01 1019.25 1019.50 1019.75 1020.03
1018.36 1018.56 1018.69 1018.78 1018.85 1018.94 1019.06 1019.23 1019.44 1019.68 1019.90 1020.08 1020.18 1020.17 1020.05 1019.82 1019.50 1019.12 1018.72 1018.32 1017.94 1017.61 1017.32 1017.07 1016.87 1016.70 1016.57 1016.49 1016.45 1016.48 1016.58 1016.74 1016.97 1017.24 1017.54 1017.85 1018.15 1018.43 1018.69 1018.92 1019.14 1019.36 1019.58 1019.83
1018.21 1018.44 1018.61 1018.72 1018.81 1018.90 1019.01 1019.16 1019.34 1019.55 1019.77 1019.97 1020.12 1020.22 1020.24 1020.18 1020.04 1019.85 1019.61 1019.33 1019.04 1018.74 1018.43 1018.13 1017.83 1017.55 1017.30 1017.09 1016.95 1016.88 1016.90 1016.99 1017.16 1017.39 1017.65 1017.92 1018.18 1018.42 1018.63 1018.82 1018.99 1019.16 1019.34 1019.54
1018.21 1018.45 1018.62 1018.74 1018.83 1018.89 1018.97 1019.07 1019.20 1019.37 1019.57 1019.78 1019.98 1020.17 1020.32 1020.42 1020.47 1020.46 1020.40 1020.27 1020.09 1019.85 1019.56 1019.23 1018.88 1018.52 1018.17 1017.87 1017.63 1017.47 1017.41 1017.43 1017.53 1017.69 1017.89 1018.09 1018.28 1018.45 1018.59 1018.71 1018.81 1018.92 1019.03 1019.18
1018.35 1018.58 1018.75 1018.85 1018.91 1018.94 1018.97 1019.01 1019.09 1019.21 1019.37 1019.58 1019.82 1020.08 1020.35 1020.59 1020.81 1020.97 1021.07 1021.08 1021.02 1020.86 1020.62 1020.30 1019.93 1019.53 1019.14 1018.77 1018.46 1018.24 1018.10 1018.05 1018.08 1018.16 1018.27 1018.38 1018.49 1018.56 1018.61 1018.63 1018.65 1018.67 1018.72 1018.80
1018.59 1018.80 1018.95 1019.03 1019.07 1019.06 1019.04 1019.03 1019.05 1019.13 1019.26 1019.46 1019.73 1020.04 1020.38 1020.74 1021.08 1021.38 1021.62 1021.76 1021.81 1021.74 1021.56 1021.29 1020.94 1020.54 1020.14 1019.75 1019.41 1019.14 1018.95 1018.84 1018.79 1018.78 1018.80 1018.81 1018.81 1018.77 1018.72 1018.64 1018.57 1018.51 1018.48 1018.50
1018.86 1019.05 1019.18 1019.24 1019.25 1019.23 1019.18 1019.14 1019.13 1019.18 1019.29 1019.48 1019.76 1020.10 1020.49 1020.92 1021.35 1021.74 1022.08 1022.32 1022.46 1022.48 1022.38 1022.16 1021.86 1021.51 1021.13 1020.75 1020.42 1020.13 1019.91 1019.75 1019.63 1019.55 1019.47 1019.38 1019.26 1019.12 1018.96 1018.79 1018.63 1018.49 1018.39 1018.34
1019.08 1019.25 1019.36 1019.42 1019.44 1019.42 1019.37 1019.34 1019.33 1019.37 1019.48 1019.68 1019.95 1020.31 1020.73 1021.19 1021.66 1022.11 1022.50 1022.81 1023.02 1023.11 1023.08 1022.94 1022.71 1022.41 1022.09 1021.76 1021.45 1021.18 1020.94 1020.75 1020.58 1020.42 1020.25 1020.06 1019.85 1019.61 1019.36 1019.10 1018.86 1018.66 1018.50 1018.40
1019.18 1019.33 1019.46 1019.54 1019.58 1019.60 1019.60 1019.60 1019.63 1019.71 1019.84 1020.05 1020.34 1020.70 1021.12 1021.59 1022.07 1022.53 1022.94 1023.29 1023.54 1023.68 1023.71 1023.64 1023.49 1023.27 1023.02 1022.75 1022.49 1022.24 1022.01 1021.79 1021.58 1021.36 1021.12 1020.85 1020.55 1020.23 1019.90 1019.58 1019.28 1019.03 1018.82 1018.67
1019.14 1019.30 1019.44 1019.56 1019.66 1019.75 1019.83 1019.91 1020.01 1020.15 1020.34 1020.58 1020.89 1021.26 1021.68 1022.13 1022.59 1023.04 1023.45 1023.80 1024.07 1024.25 1024.33 1024.32 1024.24 1024.11 1023.93 1023.72 1023.51 1023.29 1023.07 1022.84 1022.59 1022.32 1022.02 1021.69 1021.32 1020.94 1020.56 1020.19 1019.85 1019.56 1019.32 1019.13
1018.98 1019.14 1019.32 1019.50 1019.68 1019.86 1020.04 1020.23 1020.43 1020.66 1020.92 1021.22 1021.56 1021.95 1022.36 1022.80 1023.24 1023.67 1024.06 1024.39 1024.66 1024.86 1024.98 1025.02 1025.00 1024.93 1024.82 1024.67 1024.50 1024.31 1024.09 1023.85 1023.57 1023.26 1022.90 1022.52 1022.10 1021.68 1021.25 1020.85 1020.49 1020.17 1019.91 1019.68
1018.74 1018.93 1019.14 1019.38 1019.65 1019.93 1020.23 1020.53 1020.85 1021.19 1021.54 1021.91 1022.30 1022.71 1023.14 1023.56 1023.98 1024.38 1024.75 1025.07 1025.33 1025.54 1025.67 1025.75 1025.78 1025.75 1025.68 1025.58 1025.43 1025.25 1025.04 1024.77 1024.47 1024.11 1023.72 1023.29 1022.84 1022.38 1021.93 1021.51 1021.13 1020.80 1020.50 1020.25
1018.52 1018.71 1018.97 1019.27 1019.61 1019.99 1020.40 1020.82 1021.25 1021.69 1022.14 1022.59 1023.04 1023.49 1023.93 1024.36 1024.77 1025.15 1025.50 1025.80 1026.05 1026.25 1026.40 1026.50 1026.54 1026.54 1026.50 1026.41 1026.28 1026.10 1025.86 1025.58 1025.24 1024.85 1024.42 1023.95 1023.47 1022.99 1022.52 1022.09 1021.69 1021.34 1021.03 1020.74
Thickness
5712 5709 5703 5706 5711 5714 5714 5709 5706 5709 5719 5718 5715 5716 5721 5726 5727 5728 5730 5733 5735 5737 5741 5743 5742 5741 5741 5740 5740 5738 5736 5735 5733 5732 5731 5729 5727 5727 5725 5724 5722 5722 5722 5722
5703 5697 5704 5708 5711 5712 5710 5705 5703 5707 5715 5715 5713 5714 5723 5726 5727 5730 5732 5734 5735 5737 5739 5740 5740 5740 5740 5739 5739 5738 5736 5735 5733 5731 5730 5728 5726 5725 5723 5721 5720 5720 5720 5719
5697 5696 5703 5704 5704 5704 5705 5705 5705 5704 5709 5714 5711 5709 5718 5726 5729 5730 5733 5736 5739 5738 5740 5740 5740 5740 5739 5739 5738 5737 5736 5734 5732 5730 5728 5726 5724 5723 5722 5720 5719 5717 5717 5716
5697 5700 5700 5700 5702 5706 5697 5708 5709 5707 5705 5703 5708 5699 5716 5724 5724 5727 5731 5735 5738 5741 5742 5742 5741 5741 5740 5739 5739 5738 5736 5735 5732 5730 5728 5726 5724 5722 5721 5720 5718 5716 5715 5714
5694 5699 5698 5697 5701 5706 5702 5710 5709 5708 5705 5703 5708 5705 5716 5726 5724 5729 5735 5738 5741 5744 5744 5743 5742 5743 5743 5741 5739 5737 5736 5733 5731 5729 5727 5725 5724 5723 5721 5719 5716 5715 5713 5712
5699 5703 5703 5702 5707 5708 5707 5706 5704 5705 5704 5693 5705 5706 5712 5727 5731 5736 5740 5743 5745 5746 5746 5745 5745 5744 5742 5740 5737 5736 5733 5731 5729 5727 5726 5725 5723 5721 5718 5716 5715 5714 5713 5711
5694 5698 5703 5707 5701 5703 5705 5698 5688 5686 5687 5694 5710 5707 5718 5738 5743 5744 5744 5747 5749 5750 5748 5746 5744 5742 5740 5738 5736 5735 5732 5730 5728 5727 5726 5725 5723 5721 5718 5717 5715 5713 5712 5710
5691 5689 5701 5705 5704 5702 5705 5706 5694 5686 5688 5699 5707 5709 5728 5743 5747 5749 5751 5751 5751 5751 5750 5748 5746 5744 5741 5739 5737 5735 5733 5731 5729 5727 5727 5725 5723 5720 5719 5716 5715 5713 5712 5710
5700 5694 5706 5709 5712 5711 5706 5707 5713 5706 5704 5700 5708 5719 5732 5743 5743 5746 5748 5749 5749 5750 5749 5748 5747 5745 5742 5740 5738 5736 5733 5731 5729 5727 5726 5724 5722 5719 5717 5715 5714 5712 5710 5707
5712 5698 5703 5707 5711 5710 5713 5712 5708 5703 5693 5692 5702 5712 5721 5732 5738 5742 5745 5747 5750 5751 5750 5748 5747 5745 5743 5742 5739 5737 5734 5732 5729 5727 5725 5722 5720 5718 5715 5714 5712 5710 5708 5705
5717 5705 5699 5703 5703 5705 5706 5707 5708 5707 5707 5699 5694 5709 5735 5736 5739 5742 5746 5748 5750 5750 5749 5748 5746 5745 5743 5740 5737 5735 5733 5730 5728 5726 5724 5720 5718 5715 5713 5711 5709 5707 5705 5703
5714 5709 5699 5703 5713 5716 5714 5713 5711 5701 5701 5706 5704 5711 5740 5740 5742 5744 5747 5749 5750 5750 5749 5748 5745 5743 5740 5737 5736 5734 5732 5729 5726 5724 5721 5719 5716 5713 5711 5709 5707 5705 5702 5700
5712 5706 5694 5694 5701 5708 5709 5711 5712 5711 5709 5706 5702 5711 5739 5742 5741 5743 5745 5746 5747 5746 5746 5745 5742 5740 5738 5736 5734 5733 5731 5728 5725 5721 5719 5716 5714 5711 5709 5706 5704 5702 5700 5698
5717 5710 5703 5693 5700 5709 5707 5707 5709 5709 5705 5705 5710 5716 5730 5735 5736 5740 5742 5743 5744 5744 5743 5742 5739 5738 5736 5735 5733 5731 5729 5727 5723 5719 5716 5713 5712 5709 5706 5704 5701 5699 5697 5694
5715 5708 5709 5710 5711 5710 5709 5709 5709 5708 5712 5710 5715 5718 5727 5734 5736 5739 5741 5741 5740 5740 5740 5739 5738 5737 5735 5733 5731 5730 5727 5724 5721 5717 5714 5711 5710 5707 5703 5700 5697 5695 5692 5690
5713 5708 5708 5705 5709 5709 5706 5710 5710 5709 5712 5713 5715 5718 5734 5737 5738 5738 5740 5738 5737 5737 5738 5739 5738 5737 5735 5733 5731 5729 5725 5723 5719 5715 5712 5709 5706 5702 5699 5696 5694 5691 5688 5686
5711 5708 5701 5700 5706 5704 5700 5712 5712 5712 5716 5716 5714 5724 5732 5731 5732 5734 5736 5737 5736 5737 5737 5737 5738 5737 5735 5734 5732 5727 5725 5721 5717 5713 5710 5706 5703 5698 5696 5693 5690 5686 5684 5681
5711 5707 5703 5699 5698 5683 5708 5722 5718 5714 5717 5722 5724 5728 5730 5730 5731 5733 5736 5736 5736 5736 5736 5736 5737 5736 5735 5734 5730 5727 5723 5718 5714 5710 5707 5703 5699 5695 5692 5689 5686 5683 5682 5678
5712 5706 5699 5696 5690 5695 5708 5716 5714 5712 5714 5725 5724 5726 5728 5730 5729 5730 5733 5734 5734 5734 5734 5734 5734 5734 5732 5730 5727 5722 5718 5715 5710 5707 5704 5701 5697 5692 5688 5685 5682 5679 5677 5674
5702 5705 5700 5693 5685 5684 5705 5718 5721 5714 5708 5727 5727 5725 5724 5724 5720 5723 5730 5729 5729 5729 5729 5729 5729 5728 5726 5724 5721 5717 5713 5710 5706 5703 5701 5698 5694 5689 5685 5682 5679 5675 5672 5669
5692 5692 5692 5691 5689 5700 5715 5715 5713 5698 5708 5725 5726 5725 5724 5722 5725 5725 5725 5724 5723 5722 5722 5722 5721 5719 5718 5718 5715 5711 5708 5705 5703 5699 5696 5692 5689 5684 5681 5677 5674 5670 5667 5664
5695 5690 5690 5690 5685 5693 5712 5710 5707 5714 5725 5725 5724 5724 5721 5721 5719 5719 5717 5716 5715 5715 5714 5714 5713 5711 5710 5710 5707 5704 5701 5700 5696 5692 5688 5685 5683 5679 5675 5670 5667 5665 5661 5657
5696 5699 5699 5698 5699 5710 5711 5712 5716 5719 5719 5721 5720 5720 5717 5714 5712 5712 5711 5710 5709 5708 5706 5706 5704 5702 5701 5701 5699 5696 5694 5692 5688 5684 5681 5678 5675 5672 5668 5664 5660 5657 5654 5652
5695 5693 5693 5695 5702 5705 5707 5710 5711 5712 5713 5715 5715 5714 5712 5709 5708 5706 5704 5703 5702 5701 5699 5698 5696 5694 5692 5691 5689 5688 5687 5684 5681 5677 5674 5671 5669 5665 5661 5657 5654 5651 5647 5645
5691 5687 5687 5690 5698 5699 5701 5703 5706 5707 5708 5708 5708 5708 5707 5705 5702 5701 5699 5697 5695 5693 5691 5690 5688 5685 5684 5682 5680 5679 5678 5676 5673 5670 5667 5663 5660 5657 5653 5648 5645 5642 5639 5636
5688 5686 5685 5688 5698 5697 5698 5702 5701 5699 5700 5701 5700 5699 5700 5699 5697 5695 5693 5690 5688 5686 5684 5681 5679 5676 5675 5674 5671 5669 5668 5667 5665 5662 5658 5654 5651 5647 5644 5640 5635 5629 5627 5623